DELTA 1 DEB, 7021

Orbit data source: Space-Track

DELTA 1 DEB, 7021 is space debris in SSO originally from a launch on Tue, 06 Nov 1973 UTC launched from the Air Force Western Test Range (AFWTR). Debris objects in space refer to the collection of defunct objects orbiting the Earth. Examples of debris include non-operational satellites, rocket bodies, and fragments generated from explosions, collisions, or faulty payload assembly.

Loading next visibility...
Identifier
7021, 1973-086M
Orbit
SSO
Country
Flag of USUS
Related business
Manufacturer
Unknown
Mission
Spacecraft
Bus & Motor
Unknown
Mass
Unknown
Launch date (UTC)
1973-11-06 (53 years ago)
Launch vehicle
Unknown
Launch site
Air Force Western Test Range (AFWTR)
Object type
Payload
Rocket body
Debris
Shape & HBR
Unknown shape, 0.2 m
Radar Cross Section
Medium (>0.1 m² and <1 m²)

Expand to show TLE details & history
Last TLE update: 23 hours ago

TLE from 23 hours ago
0 DELTA 1 DEB
1 07021U 73086M   26265.03892624  .00000280  00000-0  24837-2 0  9995
2 07021 101.6792 299.2832 0181786  44.5648  11.0568 12.33191257361224
Epoch: 2026-09-22T00:56Z
TLE epoch observation values (Epoch: 2026-09-22T00:56:03.227Z)
Latitude
54.40326°
Longitude
-92.33872°
Altitude
1,403.24 km
Speed
7.227 km/s
True Right ascension
18h 50m 20s
True Declination
54° 15' 14"
Sunlit
Object was in daylight at epoch
Visualization orbit readout
Latitude
Unknown
Longitude
Unknown
Altitude
Unknown
Speed
Unknown
Apparent Right ascension
Unknown
Apparent Declination
Unknown
Sunlit
N/A
Visualization observer readout
Local Sidereal Time
17:13:03
Azimuth
Unknown
Elevation
Unknown
Doppler factor
Unknown
Orbital elements
Apogee altitude
1,676.979 km
Perigee altitude
1,389.346 km
Semi-major axis
7,911.3 km
Eccentricity
0.01818
Inclination
101.6792°
RAAN
299.2832°
Arg. of periapsis
44.5648°
True anomaly
11.4654°
Mean anomaly
11.0568°
Eccentric anomaly
11.26018°
Mean motion
3.08441 °/min
Orbital period
116.72 mins
BSTAR
0.0024837
Loading maneuver chart data...
Computing Atmospheric mass density...
Loading historical data...
Loading historical data...
Loading historical data...
Loading historical data...
Loading historical data...
Loading historical data...
Loading historical data...

Documentation

Showing up to 5 results
|